User: anonymous   Login
Location: Gleizolles
(44.4833°N, 6.7667°E)
Time: 21:11:35
(UTC+00:00)
Language:

Tiros 1 despin weight - Orbit

View from above orbital plane
View from above orbital plane
View from above satellite
View from above satellite

Ground track
Ground track

The orbit data is extracted from the following two-line orbital elements,

1 00115U 60002D   24176.00595867  .00002319  00000-0  26159-3 0  9996
2 00115  48.1653  39.4006 0031655 253.1649 106.5793 14.89689964409950
Epoch (UTC): 24 June 2024 00:08:34
Eccentricity: 0.0031655
inclination: 48.1653°
perigee height: 577 km
apogee height: 621 km
right ascension of ascending node: 39.4006°
argument of perigee: 253.1649°
revolutions per day: 14.89689964
mean anomaly at epoch: 106.5793°
orbit number at epoch: 40995

The dashed part of the orbit path shows where the satellite is in the earth's shadow,  

DLR